Location: Hamburg
(53.5511°N, 9.9937°E)
Time: 12:46:00
(UTC+01:00)

ISS - Visible Passes

Search period start: 15 March 2026 00:00
Search period end: 25 March 2026 00:00
Orbit: 417 x 426 km, 51.6° (Epoch: 14 March)

Date Brightness Start Highest point End Pass type
(mag) Time Alt. Az. Time Alt. Az. Time Alt. Az.
15 Mar -3.1 19:49:50 10° SW 19:53:01 38° SSE 19:54:11 28° ESE visible
15 Mar -1.1 21:26:17 10° W 21:27:12 17° WSW 21:27:12 17° WSW visible
16 Mar -2.6 19:03:18 10° SW 19:06:20 30° SSE 19:09:22 10° E visible
16 Mar -3.4 20:39:31 10° WSW 20:42:27 54° SSW 20:42:27 54° SSW visible
17 Mar -3.5 19:52:46 10° WSW 19:56:06 56° S 19:57:37 28° ESE visible
17 Mar -1.3 21:29:27 10° W 21:30:38 20° W 21:30:38 20° W visible
18 Mar -3.3 19:06:01 10° WSW 19:09:20 48° SSE 19:12:37 10° E visible
18 Mar -3.5 20:42:38 10° W 20:45:44 59° SSW 20:45:44 59° SSW visible
19 Mar -3.6 19:55:47 10° W 19:59:10 64° S 20:00:47 28° ESE visible
19 Mar -1.3 21:32:35 10° W 21:33:47 19° W 21:33:47 19° W visible
20 Mar -3.5 19:08:57 10° WSW 19:12:19 62° S 19:15:41 10° E visible
20 Mar -3.2 20:45:41 10° W 20:48:48 48° SSW 20:48:48 48° SSW visible
21 Mar -3.5 19:58:48 10° W 20:02:09 56° S 20:03:47 26° ESE visible
21 Mar -1.1 21:35:48 10° W 21:36:47 16° WSW 21:36:47 16° WSW visible
22 Mar -3.5 19:11:53 10° W 19:15:16 62° S 19:18:37 10° ESE visible
22 Mar -2.5 20:48:46 10° W 20:51:46 31° SSW 20:51:46 31° SSW visible
23 Mar -2.8 20:01:46 10° W 20:04:59 39° SSW 20:06:44 22° SE visible
23 Mar -0.7 21:39:35 10° WSW 21:39:44 10° WSW 21:39:44 10° WSW visible
24 Mar -3.1 19:14:48 10° W 19:18:05 48° SSW 19:21:23 10° ESE visible
24 Mar -1.6 20:52:04 10° WSW 20:54:25 18° SW 20:54:43 17° SSW visible
